| time (UTC) | temp F | wind direction | speed knots | gust knots | rain 1hr in | rain 24hr in | rain mn in | humidity % | barometer mb |
| 20260504050517 | 55 | 16 | 4.3 | 9.6 | 0.00 | 0.00 | 0.00 | 46 | 923.5 |
| 20260504050015 | 55 | 5 | 6.1 | 13.0 | 0.00 | 0.00 | 0.00 | 46 | 923.5 |
| 20260504045516 | 55 | 13 | 7.0 | 13.0 | 0.00 | 0.00 | 0.00 | 45 | 923.4 |
| 20260504045014 | 56 | 10 | 4.3 | 10.4 | 0.00 | 0.00 | 0.00 | 45 | 923.3 |
| 20260504044523 | 56 | 12 | 7.0 | 12.2 | 0.00 | 0.00 | 0.00 | 44 | 923.5 |
| 20260504044018 | 56 | 9 | 8.7 | 13.0 | 0.00 | 0.00 | 0.00 | 45 | 923.5 |
| 20260504043514 | 56 | 5 | 8.7 | 13.0 | 0.00 | 0.00 | 0.00 | 44 | 923.3 |
| 20260504043115 | 57 | 355 | 8.7 | 12.2 | 0.00 | 0.00 | 0.00 | 44 | 923.2 |
| 20260504042514 | 57 | 355 | 8.7 | 12.2 | 0.00 | 0.00 | 0.00 | 44 | 923.0 |
| 20260504042014 | 57 | 360 | 7.8 | 13.0 | 0.00 | 0.00 | 0.00 | 43 | 922.9 |
| 20260504041514 | 58 | 360 | 8.7 | 13.0 | 0.00 | 0.00 | 0.00 | 43 | 922.8 |
| 20260504041014 | 58 | 360 | 8.7 | 15.6 | 0.00 | 0.00 | 0.00 | 42 | 922.8 |
| 20260504040520 | 58 | 360 | 10.4 | 15.6 | 0.00 | 0.00 | 0.00 | 42 | 922.8 |
| 20260504040017 | 59 | 5 | 10.4 | 13.9 | 0.00 | 0.00 | 0.00 | 41 | 922.6 |
| 20260504035514 | 59 | 360 | 9.6 | 19.1 | 0.00 | 0.00 | 0.00 | 41 | 922.6 |
| 20260504035014 | 60 | 360 | 11.3 | 19.1 | 0.00 | 0.00 | 0.00 | 40 | 922.4 |
| 20260504034513 | 60 | 360 | 13.0 | 19.1 | 0.00 | 0.00 | 0.00 | 40 | 922.4 |
| 20260504034013 | 60 | 360 | 12.2 | 21.7 | 0.00 | 0.00 | 0.00 | 39 | 922.3 |
| 20260504033513 | 61 | 360 | 13.9 | 21.7 | 0.00 | 0.00 | 0.00 | 38 | 922.2 |
| 20260504033112 | 62 | 360 | 16.5 | 29.5 | 0.00 | 0.00 | 0.00 | 37 | 922.1 |
| 20260504032512 | 63 | 355 | 18.2 | 29.5 | 0.00 | 0.00 | 0.00 | 37 | 922.0 |
| 20260504032015 | 65 | 355 | 23.5 | 29.5 | 0.00 | 0.00 | 0.00 | 35 | 921.8 |
| 20260504031512 | 64 | 323 | 13.9 | 21.7 | 0.00 | 0.00 | 0.00 | 36 | 921.1 |
| 20260504031011 | 64 | 316 | 11.3 | 16.5 | 0.00 | 0.00 | 0.00 | 36 | 921.0 |
| 20260504030511 | 64 | 292 | 11.3 | 16.5 | 0.00 | 0.00 | 0.00 | 36 | 921.0 |
| 20260504030013 | 65 | 295 | 12.2 | 19.1 | 0.00 | 0.00 | 0.00 | 35 | 920.9 |
| 20260504025511 | 65 | 295 | 14.8 | 19.1 | 0.00 | 0.00 | 0.00 | 35 | 920.9 |
| 20260504025011 | 65 | 302 | 12.2 | 18.2 | 0.00 | 0.00 | 0.00 | 35 | 920.8 |
| 20260504024511 | 65 | 313 | 13.0 | 18.2 | 0.00 | 0.00 | 0.00 | 35 | 920.9 |
| 20260504024010 | 66 | 300 | 13.9 | 20.0 | 0.00 | 0.00 | 0.00 | 35 | 920.8 |
| 20260504023510 | 66 | 309 | 12.2 | 19.1 | 0.00 | 0.00 | 0.00 | 35 | 920.7 |
| 20260504023110 | 66 | 314 | 12.2 | 20.0 | 0.00 | 0.00 | 0.00 | 34 | 920.7 |
| 20260504022511 | 67 | 300 | 12.2 | 20.0 | 0.00 | 0.00 | 0.00 | 34 | 920.6 |
| 20260504022010 | 67 | 304 | 13.9 | 20.0 | 0.00 | 0.00 | 0.00 | 34 | 920.7 |
| 20260504021510 | 67 | 303 | 13.0 | 21.7 | 0.00 | 0.00 | 0.00 | 34 | 920.8 |
| 20260504021009 | 68 | 306 | 14.8 | 21.7 | 0.00 | 0.00 | 0.00 | 33 | 920.7 |
| 20260504020510 | 68 | 326 | 15.6 | 23.5 | 0.00 | 0.00 | 0.00 | 33 | 920.6 |
| 20260504020015 | 69 | 310 | 17.4 | 22.6 | 0.00 | 0.00 | 0.00 | 33 | 920.8 |
| 20260504015509 | 69 | 317 | 16.5 | 22.6 | 0.00 | 0.00 | 0.00 | 32 | 920.6 |
| 20260504015010 | 70 | 313 | 17.4 | 22.6 | 0.00 | 0.00 | 0.00 | 31 | 920.6 |
| 20260504014510 | 70 | 323 | 15.6 | 20.9 | 0.00 | 0.00 | 0.00 | 28 | 920.5 |
| 20260504014011 | 70 | 302 | 14.8 | 25.2 | 0.00 | 0.00 | 0.00 | 27 | 920.5 |
| 20260504013509 | 71 | 309 | 19.1 | 26.1 | 0.00 | 0.00 | 0.00 | 26 | 920.6 |
| 20260504013109 | 71 | 302 | 15.6 | 26.1 | 0.00 | 0.00 | 0.00 | 28 | 920.5 |
| 20260504012515 | 71 | 292 | 14.8 | 20.9 | 0.00 | 0.00 | 0.00 | 28 | 920.5 |
| 20260504012015 | 71 | 263 | 14.8 | 20.9 | 0.00 | 0.00 | 0.00 | 27 | 920.4 |
| 20260504011509 | 71 | 273 | 11.3 | 20.0 | 0.00 | 0.00 | 0.00 | 28 | 920.5 |
| 20260504011008 | 71 | 272 | 14.8 | 20.0 | 0.00 | 0.00 | 0.00 | 27 | 920.5 |
| 20260504010509 | 71 | 279 | 14.8 | 20.9 | 0.00 | 0.00 | 0.00 | 26 | 920.6 |
| 20260504010007 | 72 | 281 | 16.5 | 25.2 | 0.00 | 0.00 | 0.00 | 26 | 920.7 |
| 20260504005506 | 72 | 294 | 16.5 | 26.1 | 0.00 | 0.00 | 0.00 | 25 | 920.7 |
| 20260504005007 | 72 | 286 | 19.1 | 26.1 | 0.00 | 0.00 | 0.00 | 25 | 920.7 |
| 20260504004506 | 73 | 286 | 19.1 | 25.2 | 0.00 | 0.00 | 0.00 | 24 | 920.9 |
| 20260504004011 | 73 | 298 | 18.2 | 25.2 | 0.00 | 0.00 | 0.00 | 23 | 920.8 |
| 20260504003506 | 73 | 295 | 17.4 | 26.1 | 0.00 | 0.00 | 0.00 | 23 | 920.8 |
| 20260504003106 | 74 | 304 | 22.6 | 31.3 | 0.00 | 0.00 | 0.00 | 21 | 920.8 |
| 20260504002505 | 74 | 306 | 21.7 | 30.4 | 0.00 | 0.00 | 0.00 | 22 | 920.8 |
| 20260504002004 | 74 | 280 | 17.4 | 26.9 | 0.00 | 0.00 | 0.00 | 23 | 920.8 |
| 20260504001504 | 74 | 288 | 18.2 | 27.8 | 0.00 | 0.00 | 0.00 | 23 | 920.8 |
| 20260504001003 | 74 | 284 | 19.1 | 27.8 | 0.00 | 0.00 | 0.00 | 24 | 920.9 |
| 20260504000503 | 74 | 288 | 16.5 | 26.9 | 0.00 | 0.00 | 0.00 | 23 | 921.1 |
| 20260504000003 | 74 | 259 | 17.4 | 26.9 | 0.00 | 0.00 | 0.00 | 24 | 921.1 |
| 20260503235502 | 75 | 273 | 17.4 | 25.2 | 0.00 | 0.00 | 0.00 | 25 | 921.0 |
| 20260503235002 | 75 | 273 | 17.4 | 26.1 | 0.00 | 0.00 | 0.00 | 25 | 921.1 |
| 20260503234504 | 75 | 271 | 20.0 | 26.1 | 0.00 | 0.00 | 0.00 | 26 | 921.2 |
| 20260503234002 | 75 | 265 | 15.6 | 25.2 | 0.00 | 0.00 | 0.00 | 25 | 921.3 |
| 20260503233502 | 75 | 277 | 20.0 | 26.1 | 0.00 | 0.00 | 0.00 | 26 | 921.2 |
| 20260503233103 | 75 | 263 | 20.0 | 29.5 | 0.00 | 0.00 | 0.00 | 26 | 921.4 |
| 20260503232500 | 75 | 275 | 22.6 | 29.5 | 0.00 | 0.00 | 0.00 | 26 | 921.4 |
| 20260503232100 | 75 | 256 | 17.4 | 27.8 | 0.00 | 0.00 | 0.00 | 26 | 921.6 |
| 20260503231600 | 75 | 267 | 14.8 | 23.5 | 0.00 | 0.00 | 0.00 | 25 | 921.6 |
| 20260503231059 | 75 | 248 | 15.6 | 24.3 | 0.00 | 0.00 | 0.00 | 26 | 921.9 |
| 20260503230558 | 75 | 292 | 18.2 | 24.3 | 0.00 | 0.00 | 0.00 | 25 | 922.0 |
| 20260503230100 | 75 | 282 | 15.6 | 24.3 | 0.00 | 0.00 | 0.00 | 26 | 922.1 |
| 20260503225557 | 74 | 272 | 15.6 | 26.1 | 0.00 | 0.00 | 0.00 | 26 | 922.2 |
| 20260503225058 | 74 | 268 | 21.7 | 26.1 | 0.00 | 0.00 | 0.00 | 25 | 922.2 |
| 20260503224556 | 74 | 267 | 16.5 | 23.5 | 0.00 | 0.00 | 0.00 | 24 | 922.5 |
| 20260503224056 | 73 | 292 | 17.4 | 24.3 | 0.00 | 0.00 | 0.00 | 24 | 922.6 |
| 20260503223555 | 73 | 275 | 16.5 | 24.3 | 0.00 | 0.00 | 0.00 | 25 | 922.8 |
| 20260503223055 | 73 | 275 | 20.0 | 25.2 | 0.00 | 0.00 | 0.00 | 22 | 922.8 |
| 20260503222056 | 73 | 288 | 14.8 | 27.8 | 0.00 | 0.00 | 0.00 | 23 | 922.9 |
| 20260503221554 | 74 | 271 | 19.1 | 27.8 | 0.00 | 0.00 | 0.00 | 22 | 922.9 |
| 20260503221053 | 74 | 275 | 16.5 | 25.2 | 0.00 | 0.00 | 0.00 | 23 | 923.0 |
| 20260503220552 | 74 | 278 | 19.1 | 25.2 | 0.00 | 0.00 | 0.00 | 23 | 923.1 |
| 20260503220053 | 74 | 263 | 15.6 | 21.7 | 0.00 | 0.00 | 0.00 | 24 | 923.1 |
| 20260503215551 | 73 | 299 | 17.4 | 22.6 | 0.00 | 0.00 | 0.00 | 23 | 923.2 |
| 20260503215053 | 73 | 288 | 15.6 | 22.6 | 0.00 | 0.00 | 0.00 | 26 | 923.4 |
| 20260503214550 | 73 | 265 | 13.9 | 22.6 | 0.00 | 0.00 | 0.00 | 25 | 923.6 |
| 20260503214049 | 73 | 277 | 17.4 | 27.8 | 0.00 | 0.00 | 0.00 | 24 | 923.5 |
| 20260503213548 | 73 | 287 | 15.6 | 27.8 | 0.00 | 0.00 | 0.00 | 26 | 923.7 |
| 20260503213055 | 74 | 299 | 17.4 | 26.1 | 0.00 | 0.00 | 0.00 | 28 | 923.7 |
| 20260503212047 | 73 | 288 | 17.4 | 26.1 | 0.00 | 0.00 | 0.00 | 26 | 923.8 |
| 20260503211547 | 73 | 265 | 16.5 | 25.2 | 0.00 | 0.00 | 0.00 | 28 | 924.0 |
| 20260503211046 | 74 | 270 | 15.6 | 24.3 | 0.00 | 0.00 | 0.00 | 28 | 923.9 |
| 20260503210545 | 73 | 284 | 18.2 | 26.9 | 0.00 | 0.00 | 0.00 | 29 | 924.1 |
| 20260503210054 | 73 | 254 | 19.1 | 26.9 | 0.00 | 0.00 | 0.00 | 27 | 924.2 |
| 20260503205544 | 72 | 272 | 15.6 | 22.6 | 0.00 | 0.00 | 0.00 | 27 | 924.3 |
| 20260503205044 | 73 | 264 | 16.5 | 25.2 | 0.00 | 0.00 | 0.00 | 25 | 924.4 |
| 20260503204543 | 73 | 258 | 14.8 | 25.2 | 0.00 | 0.00 | 0.00 | 27 | 924.3 |
| 20260503204048 | 73 | 285 | 19.1 | 25.2 | 0.00 | 0.00 | 0.00 | 25 | 924.5 |
| 20260503203542 | 74 | 265 | 17.4 | 25.2 | 0.00 | 0.00 | 0.00 | 27 | 924.5 |
| 20260503203045 | 75 | 297 | 14.8 | 26.1 | 0.00 | 0.00 | 0.00 | 29 | 924.4 |
| 20260503202041 | 74 | 271 | 16.5 | 35.6 | 0.00 | 0.00 | 0.00 | 29 | 924.5 |
| 20260503201542 | 74 | 259 | 18.2 | 35.6 | 0.00 | 0.00 | 0.00 | 29 | 924.6 |
| 20260503201039 | 75 | 292 | 18.2 | 25.2 | 0.00 | 0.00 | 0.00 | 29 | 924.8 |
| 20260503200542 | 75 | 271 | 16.5 | 25.2 | 0.00 | 0.00 | 0.00 | 29 | 925.0 |
| 20260503200042 | 74 | 299 | 16.5 | 23.5 | 0.00 | 0.00 | 0.00 | 30 | 925.1 |
| 20260503195536 | 74 | 267 | 17.4 | 24.3 | 0.00 | 0.00 | 0.00 | 30 | 925.1 |
| 20260503195036 | 73 | 277 | 18.2 | 24.3 | 0.00 | 0.00 | 0.00 | 31 | 925.3 |
| 20260503194536 | 74 | 259 | 13.9 | 27.8 | 0.00 | 0.00 | 0.00 | 30 | 925.3 |
| 20260503194035 | 73 | 252 | 17.4 | 27.8 | 0.00 | 0.00 | 0.00 | 28 | 925.5 |
| 20260503193534 | 74 | 285 | 17.4 | 23.5 | 0.00 | 0.00 | 0.00 | 31 | 925.5 |
| 20260503193036 | 74 | 274 | 14.8 | 22.6 | 0.00 | 0.00 | 0.00 | 30 | 925.7 |
| 20260503192032 | 73 | 275 | 16.5 | 25.2 | 0.00 | 0.00 | 0.00 | 31 | 925.8 |
| 20260503191531 | 73 | 254 | 18.2 | 25.2 | 0.00 | 0.00 | 0.00 | 30 | 926.0 |
| 20260503191030 | 73 | 271 | 18.2 | 26.1 | 0.00 | 0.00 | 0.00 | 31 | 926.1 |
| 20260503190529 | 74 | 286 | 17.4 | 26.1 | 0.00 | 0.00 | 0.00 | 30 | 926.3 |
| 20260503190031 | 72 | 261 | 13.9 | 23.5 | 0.00 | 0.00 | 0.00 | 31 | 926.5 |
| 20260503185528 | 72 | 266 | 18.2 | 25.2 | 0.00 | 0.00 | 0.00 | 30 | 926.6 |
| 20260503185027 | 73 | 276 | 13.9 | 25.2 | 0.00 | 0.00 | 0.00 | 31 | 926.7 |
| 20260503184526 | 73 | 281 | 15.6 | 24.3 | 0.00 | 0.00 | 0.00 | 30 | 926.9 |
| 20260503184025 | 72 | 250 | 13.9 | 24.3 | 0.00 | 0.00 | 0.00 | 29 | 926.9 |
| 20260503183524 | 72 | 265 | 13.0 | 25.2 | 0.00 | 0.00 | 0.00 | 30 | 927.1 |
| 20260503183035 | 72 | 272 | 13.9 | 22.6 | 0.00 | 0.00 | 0.00 | 31 | 927.2 |
| 20260503182023 | 72 | 252 | 18.2 | 22.6 | 0.00 | 0.00 | 0.00 | 30 | 927.2 |
| 20260503181523 | 72 | 243 | 13.0 | 24.3 | 0.00 | 0.00 | 0.00 | 34 | 927.2 |
| 20260503181021 | 71 | 272 | 17.4 | 24.3 | 0.00 | 0.00 | 0.00 | 32 | 927.4 |
| 20260503180521 | 71 | 247 | 15.6 | 22.6 | 0.00 | 0.00 | 0.00 | 32 | 927.4 |
| 20260503180021 | 71 | 257 | 17.4 | 25.2 | 0.00 | 0.00 | 0.00 | 33 | 927.7 |
| 20260503175520 | 71 | 254 | 17.4 | 25.2 | 0.00 | 0.00 | 0.00 | 33 | 927.7 |
| 20260503175022 | 70 | 295 | 14.8 | 23.5 | 0.00 | 0.00 | 0.00 | 34 | 927.9 |
| 20260503174519 | 70 | 261 | 13.9 | 23.5 | 0.00 | 0.00 | 0.00 | 34 | 928.0 |
| 20260503174018 | 70 | 309 | 17.4 | 23.5 | 0.00 | 0.00 | 0.00 | 34 | 928.0 |
| 20260503173519 | 70 | 261 | 12.2 | 21.7 | 0.00 | 0.00 | 0.00 | 33 | 928.2 |
| 20260503173017 | 70 | 267 | 13.9 | 23.5 | 0.00 | 0.00 | 0.00 | 33 | 928.3 |
| 20260503172014 | 70 | 252 | 12.2 | 23.5 | 0.00 | 0.00 | 0.00 | 34 | 928.4 |
| 20260503171514 | 70 | 240 | 12.2 | 21.7 | 0.00 | 0.00 | 0.00 | 33 | 928.5 |
| 20260503171012 | 70 | 274 | 14.8 | 21.7 | 0.00 | 0.00 | 0.00 | 33 | 928.6 |
| 20260503170512 | 69 | 282 | 12.2 | 23.5 | 0.00 | 0.00 | 0.00 | 35 | 928.7 |
| 20260503150556 | 65 | 259 | 13.9 | 18.2 | 0.00 | 0.00 | 0.00 | 36 | 930.2 |
| 20260503131036 | 48 | 360 | 0.9 | 5.2 | 0.00 | 0.00 | 0.00 | 59 | 931.0 |
| 20260503130534 | 46 | 360 | 1.7 | 4.3 | 0.00 | 0.00 | 0.00 | 64 | 931.1 |
| 20260503110521 | 33 | 360 | 0.9 | 2.6 | 0.00 | 0.00 | 0.00 | 72 | 931.9 |
| 20260503090513 | 31 | 360 | 2.6 | 4.3 | 0.00 | 0.00 | 0.00 | 76 | 932.7 |
| 20260503081510 | 36 | 360 | 0.9 | 2.6 | 0.00 | 0.00 | 0.00 | 69 | 932.8 |
| 20260503081005 | 35 | 360 | 1.7 | 2.6 | 0.00 | 0.00 | 0.00 | 70 | 932.8 |
| 20260503080505 | 34 | 360 | 0.9 | 4.3 | 0.00 | 0.00 | 0.00 | 71 | 932.8 |
| 20260503072100 | 36 | 360 | 0.0 | 3.5 | 0.00 | 0.00 | 0.00 | 66 | 933.1 |
| 20260503071600 | 36 | 360 | 1.7 | 2.6 | 0.00 | 0.00 | 0.00 | 66 | 933.1 |
| 20260503071058 | 36 | 360 | 1.7 | 3.5 | 0.00 | 0.00 | 0.00 | 67 | 933.2 |
| 20260503070602 | 36 | 360 | 0.0 | 1.7 | 0.00 | 0.00 | 0.00 | 67 | 933.1 |
| 20260503070106 | 36 | 360 | 0.9 | 1.7 | 0.00 | 0.00 | 0.00 | 67 | 933.2 |